User: anonymous   Login
Location: Unspecified
(0.0000°N, 0.0000°E)
Time: 07:55:28
(UTC+00:00)
Language:

deb Explorer IX - Orbit

View from above orbital plane
View from above orbital plane
View from above satellite
View from above satellite

Ground track
Ground track

The orbit data is extracted from the following two-line orbital elements,

1 00085U 61004C   16237.45132548  .00000309  00000-0  91248-4 0  9995
2 00085  38.7754 265.2274 0398048 247.3948 108.4228 14.15798380733189
Epoch (UTC): 24 August 2016 10:49:54
Eccentricity: 0.0398048
inclination: 38.7754°
perigee height: 552 km
apogee height: 1127 km
right ascension of ascending node: 265.2274°
argument of perigee: 247.3948°
revolutions per day: 14.15798380
mean anomaly at epoch: 108.4228°
orbit number at epoch: 73318

The dashed part of the orbit path shows where the satellite is in the earth's shadow,  

DLR